GPS BIIF-4 (PRN 27)

Last updated on Wed Jun 24 2026 00:03:27 GMT+0000 (Coordinated Universal Time)

1 39166U 13023A 26171.17464327 -.00000057 00000+0 00000+0 0 9996 2 39166 54.5016 268.8519 0141493 51.0455 310.2435 2.00563443 95941
UTC large
Height (km)
Speed (km/s)
/
Latitude / Longitude
Inclination (degrees)
Orbital Period (minutes)
Azimuth
Elevation
Range (km)
Doppler Factor

Next 0 passes for location: London (51.5072 / 0.1276)

No passes found over London.
GPS BIIF-4 (PRN 27)